Regional Weather Roundup
Issued by NWS

Home | Current Version | Previous Version | Graphics & Text | Print | Product List | Glossary Off
Versions: 1 2 3 4 5 6 7 8 9 10 11 12 13 14 15 16 17 18 19 20 21 22 23 24 25 26 27 28 29 30 31 32 33 34 35 36 37 38 39 40 41 42 43 44 45 46 47 48 49 50

839
ASUS45 KSLC 191010
RWRUT

UTAH REGIONAL WEATHER ROUNDUP
NATIONAL WEATHER SERVICE SALT LAKE CITY UT
300 AM MST THU JAN 19 2017

UTZ001>011-023>025-191100-

NORTHERN UTAH

CITY           SKY/WX    TMP DP  RH WIND       PRES   REMARKS
BRIGHAM CITY     N/A     20  16  83 CALM      29.84S
HILL AFB       PTCLDY    24  15  68 E7        29.80F WCI  16
LOGAN          MOCLDY    16  13  88 CALM      29.82F FOG
OGDEN          PTCLDY    21  18  88 CALM      29.81S FOG
SALT LAKE CITY CLOUDY    26  22  84 N3        29.83S FOG
TOOELE VALLEY  CLOUDY    27  25  93 CALM      29.83S FOG
WENDOVER       CLOUDY    23  19  86 CALM      29.83S VSB 1
HEBER CITY     MOCLDY    12  10  92 CALM      29.80S
WEST JORDAN    MOCLDY    24  24 100 N6        29.81F WCI  17

$$

UTZ011>015-024>027-191100-

CENTRAL/NORTHEAST UTAH

CITY           SKY/WX    TMP DP  RH WIND       PRES   REMARKS
PROVO AIRPORT  CLOUDY    29  24  82 SW3       29.84S
MOAB/CANYONLAN PTCLDY    28  26  92 CALM      29.90F
DELTA          CLOUDY    36  30  80 S18G31    29.84S WCI  25
PRICE          CLOUDY    21  16  81 NW3       29.89F
ROOSEVELT      CLOUDY     0  -4  85 SW3       30.02S
VERNAL         CLOUDY    12   8  84 CALM      29.98F FOG

$$

UTZ013>016-019>022-027-191100-

SOUTHERN UTAH

CITY           SKY/WX    TMP DP  RH WIND       PRES   REMARKS
BRYCE CANYON   MOCLDY    18  12  77 SW7       29.90F WCI   9
CEDAR CITY     CLOUDY    35  25  66 SW17G28   29.85S WCI  25
MILFORD        LGT SNOW  34  30  85 SW25G33   29.85R FOG     WCI  21
ST GEORGE      CLOUDY    43  30  61 CALM      29.95S
HANKSVILLE     PTCLDY    25  21  86 MISG      29.95S
BLANDING       PTCLDY    27  25  92 CALM      30.01S

$$

REGIONAL REPORTS     COLORADO/ARIZONA

CITY           SKY/WX    TMP DP  RH WIND       PRES   REMARKS
CRAIG, CO      CLOUDY     2  -2  83 SW6       29.91F WCI  -9
GRAND JUNCTION CLOUDY    26  25  96 SE6       29.93S WCI  19
RIFLE, CO      CLOUDY    22  19  89 CALM      29.95F
MONTROSE, CO   CLOUDY    25  21  85 SE9       29.97F WCI  15
CORTEZ, CO     CLOUDY    22  20  92 SE5       29.95F WCI  16
COLORADO CITY    N/A     34  32  93 CALM      29.96F
PAGE, AZ       MOCLDY    36  27  69 CALM      29.91F
GRAND CANYON   MOCLDY    30  30 100 SW9       29.98F WCI  22
KINGMAN, AZ    CLOUDY    47  24  40 S9        29.95F
FLAGSTAFF, AZ  MOCLDY    31  28  89 W10G22    29.99F WCI  22

$$

REGIONAL REPORTS    NEVADA/IDAHO/WYOMING

CITY           SKY/WX    TMP DP  RH WIND       PRES   REMARKS
LAS VEGAS, NV  CLOUDY    50  37  61 S5        29.87F
ELY, NY        LGT SNOW  29  25  85 S12       29.80F FOG     WCI  19
ELKO, NV       CLOUDY    34  28  79 MISG      29.71F
POCATELLO, ID  LGT SNOW  25  24  96 N7        29.76F FOG     WCI  17
BURLEY, ID     FLURRIES  36  30  79 S15G28    29.70R WCI  27
FORT BRIDGER,  CLOUDY     8   4  82 CALM      29.81F
EVANSTON, WY   CLOUDY    29   9  43 S7        29.76F WCI  22
ROCK SPRINGS,  CLOUDY     6   1  80 CALM      29.79F

$$




USA.gov is the U.S. government's official web portal to all federal, state and local government web resources and services.